Vorticity
11 5 27 -8 -1 5 3 -0 0 6 20 10 3 2 16 14 12 22 31 8 -3 -17 17 18 8 34 5 3 4 2 4 7 6 7 7 7 9 11 11 11 10 9 8 6
9 6 -3 0 4 6 6 -8 5 13 7 16 7 16 12 16 8 12 10 17 25 34 1 -7 1 -5 4 1 4 6 7 7 8 7 10 12 11 11 11 9 9 9 8 8
6 2 3 2 -4 11 11 6 7 2 6 22 16 -9 8 5 11 15 12 9 3 -3 12 11 13 6 -7 -3 1 4 7 3 5 9 8 9 11 11 11 9 8 6 7 7
14 9 9 -2 2 4 3 12 8 20 16 12 -4 6 22 15 10 2 3 1 8 9 12 10 -6 -7 -11 3 6 5 2 5 10 5 6 9 9 11 12 12 12 12 11 11
-3 0 11 8 3 5 13 6 3 0 -1 4 -2 15 15 13 15 10 1 1 -1 4 -13 -11 -23 -1 25 1 -1 8 9 9 3 8 7 7 8 15 15 14 9 9 8 7
8 14 12 10 -5 -1 6 4 9 28 17 29 24 6 14 11 2 7 6 4 -1 -5 23 2 20 1 -3 -0 1 7 8 3 9 8 6 4 7 10 9 9 6 6 11 9
14 11 10 30 6 -6 7 3 18 13 11 5 11 14 11 0 9 -9 6 -2 -3 1 -6 7 3 0 4 -3 3 7 5 10 7 8 7 6 11 9 7 6 8 7 4 3
8 6 9 26 21 -15 4 7 -0 11 8 8 12 16 14 15 16 7 10 8 -9 22 12 4 3 0 3 0 4 8 11 7 9 8 7 7 11 10 7 7 4 3 4 6
7 8 10 13 13 19 21 18 11 5 11 13 10 16 11 12 8 9 14 11 18 21 -6 1 5 4 3 2 6 13 8 5 8 9 10 12 8 7 6 4 4 6 6 6
10 11 3 5 3 8 3 6 6 8 6 9 16 14 -27 15 -1 3 13 16 13 2 -1 -3 4 1 5 1 9 11 9 8 10 10 10 9 6 5 4 5 8 6 6 7
3 -3 13 3 10 8 9 5 5 12 1 5 9 15 25 7 7 9 9 1 4 9 -5 5 2 4 0 6 12 7 6 12 10 9 9 6 6 5 8 9 7 6 7 7
15 18 9 5 5 10 14 14 11 -5 17 1 0 -2 6 -0 11 12 5 7 2 4 8 -0 7 8 5 7 6 8 8 11 11 11 8 7 7 8 8 7 6 6 6 6
5 9 11 28 13 7 3 0 2 1 1 7 -13 -17 16 11 14 4 5 10 10 9 8 5 6 -2 6 3 8 11 8 11 14 12 7 8 7 7 6 6 7 7 7 7
8 8 -11 0 4 14 14 10 7 12 9 11 -5 -5 18 7 -7 10 -1 13 10 5 8 10 -0 7 3 6 10 10 11 15 13 7 7 7 6 6 7 7 7 7 6 7
9 3 8 6 3 1 1 -3 1 1 13 -11 -5 -1 8 -6 3 -2 10 13 12 12 12 4 6 6 7 10 13 14 12 17 9 7 6 7 7 6 7 8 7 6 8 8
9 3 7 2 -0 5 11 1 1 1 3 3 8 -0 8 2 -5 7 17 12 14 13 6 1 5 4 8 7 11 12 17 11 7 7 7 7 7 7 7 6 8 9 9 8
7 5 11 18 9 10 38 15 16 15 20 26 21 21 22 27 24 18 15 21 18 4 -3 4 6 7 8 8 11 14 15 7 8 6 6 6 7 6 6 8 9 9 8 10
5 13 10 9 -1 27 21 25 16 10 9 14 8 31 19 12 29 16 19 4 3 -5 5 6 11 10 7 10 11 17 9 7 6 6 6 7 7 6 6 8 9 8 9 12
6 11 -4 -4 17 -23 10 14 12 0 -3 7 11 4 5 12 15 9 12 3 -3 5 8 11 9 9 8 12 17 12 6 7 6 6 6 7 7 6 6 9 9 8 11 12
7 12 8 -8 -4 -3 6 6 14 19 29 11 12 9 14 16 12 16 13 -1 3 4 10 11 8 10 11 14 16 8 6 7 6 6 6 7 6 6 8 9 8 9 11 10
16 -0 2 -1 -1 15 7 -8 -8 19 -25 -3 21 21 13 7 9 4 9 -3 1 5 6 10 8 9 11 18 12 5 8 6 6 7 6 7 6 7 8 8 9 10 11 10
10 5 21 27 14 27 37 23 14 22 14 6 -10 -7 7 2 7 2 7 9 14 4 10 12 11 10 15 17 9 6 7 6 7 6 7 7 6 8 8 8 10 11 10 10
17 -24 -18 -4 11 -28 21 -9 -9 -1 5 10 19 19 18 8 -7 3 9 -7 14 12 11 9 13 14 17 15 6 6 6 6 6 6 8 7 7 7 8 8 10 11 10 10
22 1 13 -14 7 10 5 1 -11 10 18 5 15 8 3 -3 9 -6 6 9 21 -1 -2 14 5 13 19 14 6 7 6 6 7 7 8 7 8 7 8 9 11 10 10 10
12 11 7 6 17 2 0 -3 6 5 15 8 0 7 7 5 4 -3 2 13 7 1 1 17 11 6 19 13 6 7 7 7 7 8 9 7 8 8 8 9 11 11 10 10
9 2 -1 0 16 6 13 11 12 21 14 16 14 -2 23 6 6 4 9 19 1 4 17 19 9 7 13 11 6 6 7 8 7 8 8 8 8 8 8 9 11 10 11 11
Height
3166 3167 3167 3169 3170 3170 3170 3171 3171 3171 3171 3170 3170 3166 3167 3168 3169 3170 3168 3167 3166 3166 3165 3170 3170 3170 3174 3174 3173 3172 3171 3169 3167 3164 3162 3159 3156 3153 3150 3146 3143 3140 3138 3135
3166 3165 3167 3167 3168 3168 3169 3169 3170 3169 3169 3169 3167 3164 3165 3168 3167 3166 3169 3167 3167 3166 3167 3167 3169 3170 3173 3173 3172 3170 3168 3165 3163 3160 3159 3156 3151 3148 3145 3142 3140 3137 3134 3131
3162 3164 3165 3166 3165 3166 3167 3168 3168 3167 3166 3167 3165 3165 3163 3165 3166 3166 3167 3168 3166 3166 3166 3166 3167 3169 3171 3170 3168 3166 3164 3161 3158 3156 3153 3150 3146 3143 3140 3137 3135 3132 3129 3127
3159 3160 3162 3164 3164 3165 3165 3166 3166 3165 3165 3164 3164 3165 3165 3164 3165 3166 3166 3165 3165 3165 3166 3166 3166 3169 3171 3169 3165 3162 3159 3155 3153 3150 3148 3145 3141 3139 3136 3133 3131 3128 3125 3122
3157 3157 3158 3160 3161 3163 3163 3163 3163 3163 3163 3162 3161 3162 3162 3164 3163 3163 3163 3164 3162 3163 3163 3165 3163 3167 3169 3167 3162 3158 3155 3152 3149 3146 3143 3140 3136 3133 3130 3127 3124 3122 3119 3115
3153 3154 3154 3155 3159 3161 3162 3161 3160 3159 3159 3159 3157 3159 3162 3160 3161 3162 3162 3162 3162 3163 3164 3164 3164 3165 3164 3161 3158 3156 3152 3149 3146 3143 3138 3135 3131 3128 3125 3123 3120 3117 3114 3111
3150 3150 3150 3150 3154 3158 3160 3160 3159 3159 3159 3159 3156 3158 3157 3159 3160 3161 3162 3161 3161 3161 3161 3161 3161 3161 3160 3158 3155 3153 3150 3146 3142 3139 3136 3133 3130 3126 3122 3118 3114 3112 3109 3105
3148 3149 3148 3147 3151 3155 3158 3159 3159 3159 3161 3158 3156 3154 3155 3157 3159 3160 3161 3160 3159 3160 3160 3160 3159 3159 3157 3156 3155 3151 3147 3143 3140 3136 3132 3127 3124 3122 3118 3113 3109 3106 3102 3098
3147 3148 3147 3148 3151 3155 3156 3156 3157 3157 3156 3157 3156 3155 3156 3154 3156 3156 3158 3159 3159 3158 3159 3159 3159 3158 3157 3155 3152 3147 3143 3139 3135 3131 3127 3123 3119 3116 3112 3110 3106 3101 3097 3093
3147 3147 3148 3149 3151 3153 3153 3155 3155 3154 3156 3156 3153 3153 3150 3150 3153 3154 3155 3156 3156 3156 3156 3156 3155 3155 3153 3151 3147 3142 3138 3133 3129 3124 3121 3117 3113 3111 3108 3105 3101 3096 3092 3087
3147 3148 3149 3148 3149 3150 3152 3151 3152 3153 3153 3151 3155 3148 3145 3147 3147 3150 3152 3152 3152 3153 3153 3152 3151 3150 3148 3144 3140 3135 3131 3127 3123 3119 3116 3112 3110 3106 3103 3099 3095 3090 3085 3081
3146 3146 3146 3147 3146 3147 3148 3149 3151 3150 3150 3148 3148 3145 3143 3144 3143 3145 3148 3149 3150 3150 3149 3149 3148 3147 3143 3139 3135 3131 3127 3123 3118 3115 3112 3109 3106 3102 3099 3094 3089 3084 3079 3073
3142 3143 3144 3145 3146 3144 3145 3146 3147 3146 3146 3145 3146 3142 3142 3141 3141 3143 3145 3146 3147 3147 3146 3146 3145 3143 3139 3135 3132 3128 3124 3120 3115 3112 3109 3105 3101 3097 3094 3089 3083 3077 3073 3066
3141 3140 3140 3141 3140 3141 3142 3141 3142 3142 3142 3141 3137 3137 3138 3140 3141 3141 3141 3142 3143 3143 3143 3143 3142 3139 3135 3131 3127 3123 3119 3115 3111 3107 3104 3101 3097 3092 3088 3084 3077 3070 3065 3058
3139 3138 3138 3136 3137 3137 3138 3137 3137 3137 3138 3137 3135 3134 3137 3138 3138 3138 3138 3139 3139 3139 3140 3139 3137 3134 3130 3126 3122 3118 3114 3110 3106 3103 3099 3096 3091 3086 3082 3076 3070 3064 3057 3050
3135 3134 3133 3134 3133 3132 3131 3130 3131 3131 3130 3129 3129 3124 3129 3132 3131 3131 3132 3132 3133 3135 3135 3134 3132 3128 3123 3120 3116 3112 3108 3105 3102 3098 3094 3090 3085 3080 3075 3070 3064 3057 3050 3042
3131 3133 3130 3130 3128 3126 3124 3124 3124 3122 3120 3121 3119 3117 3122 3122 3123 3124 3125 3126 3129 3130 3129 3128 3125 3121 3117 3113 3109 3105 3102 3099 3096 3092 3087 3083 3079 3074 3068 3062 3056 3048 3041 3033
3125 3127 3127 3126 3126 3124 3116 3118 3116 3115 3114 3114 3112 3113 3115 3116 3116 3119 3121 3123 3124 3124 3123 3120 3118 3114 3110 3106 3102 3098 3095 3092 3089 3084 3081 3077 3072 3066 3061 3055 3048 3040 3033 3026
3121 3123 3124 3123 3122 3116 3112 3113 3114 3110 3107 3109 3109 3110 3111 3112 3113 3115 3117 3119 3119 3118 3115 3113 3111 3108 3104 3100 3095 3092 3089 3086 3082 3079 3075 3069 3065 3060 3054 3048 3041 3033 3026 3018
3119 3118 3122 3119 3120 3114 3108 3108 3108 3106 3102 3103 3105 3105 3106 3108 3109 3112 3113 3113 3113 3111 3109 3107 3104 3101 3097 3093 3089 3087 3083 3080 3076 3072 3067 3063 3058 3053 3047 3040 3033 3025 3017 3010
3110 3113 3113 3114 3113 3104 3103 3106 3107 3107 3105 3101 3101 3102 3104 3105 3108 3109 3109 3108 3107 3105 3102 3099 3097 3093 3090 3086 3084 3081 3078 3073 3070 3066 3061 3056 3051 3046 3040 3033 3025 3017 3011 3003
3106 3107 3106 3109 3108 3103 3099 3100 3101 3101 3099 3099 3100 3100 3101 3102 3102 3104 3104 3102 3101 3099 3096 3093 3089 3086 3083 3080 3078 3075 3071 3068 3064 3060 3055 3050 3045 3039 3033 3027 3019 3011 3003 2996
3098 3099 3101 3100 3094 3096 3096 3096 3096 3097 3096 3096 3096 3097 3097 3098 3099 3099 3097 3096 3094 3091 3089 3086 3084 3081 3077 3074 3072 3069 3065 3062 3058 3053 3049 3044 3038 3032 3026 3020 3013 3005 2997 2988
3088 3091 3091 3092 3090 3092 3094 3093 3092 3092 3092 3092 3093 3093 3093 3093 3094 3093 3092 3090 3088 3086 3083 3080 3077 3074 3071 3068 3066 3062 3059 3055 3051 3047 3043 3038 3032 3025 3020 3013 3006 2997 2988 2981
3085 3085 3084 3082 3085 3086 3087 3087 3087 3086 3087 3088 3088 3088 3088 3087 3087 3086 3085 3083 3081 3078 3076 3073 3070 3068 3065 3062 3059 3055 3052 3049 3045 3040 3036 3031 3025 3019 3014 3007 3000 2992 2982 2972
3074 3076 3077 3075 3079 3079 3080 3081 3080 3080 3081 3081 3080 3081 3081 3081 3080 3079 3078 3076 3074 3071 3068 3064 3062 3060 3056 3054 3051 3048 3045 3042 3038 3033 3029 3024 3018 3012 3006 3001 2996 2985 2977 2969